Date String (YYYY-MM-DD hh:mm:ss) UTC,Instrument flags,absolute air pressure of the measurement (hPa),sample flow rate (lpm),inlet stack bypass flow (lpm),air temperature of the measurement (°C),ambient temperature measured by the external sensor (°C),aerosol sample conditioner tube jacket temperature (°C),OPC LED temperature (°C),internal box temperature (°C),relative humidity of the measurement (%),span deviation,mass concentration of particles derived from Lorenz-Mie calculation of OPC scattering (μg/m³),mass concentration of particles derived from Lorenz-Mie calculation of OPC scattering (μg/m³),mass concentration of particles derived from Lorenz-Mie calculation of OPC scattering (μg/m³)
DateTimeUTC,F1_M11,P_M11,Q1_M11,Q2_M11,T1_M11,T2_M11,T3_M11,T4_M11,T5_M11,U1_M11,ZSPAN_M11,X0_M11,X2_M11,X1_M11
2024-02-11 07:00:00,SystemResetWarning,0829.0,5.00,000.00,018.2,017.6,000.0,026.9,020.0,17.3,0000.0,0005.17,0004.65,0004.62
2024-02-11 07:01:00,SystemResetWarning,0829.0,5.00,000.00,018.2,017.6,000.0,026.9,020.0,17.3,0000.0,0005.23,0004.66,0004.61
2024-02-11 07:02:00,SystemResetWarning,0829.0,5.00,000.00,018.2,017.6,000.0,026.9,020.0,17.4,0000.0,0005.21,0004.64,0004.59
2024-02-11 07:03:00,SystemResetWarning,0829.0,5.00,000.00,018.2,017.6,000.0,026.9,020.0,17.4,0000.0,0005.12,0004.61,0004.56
2024-02-11 07:04:00,SystemResetWarning,0828.9,5.01,000.00,018.3,018.1,000.0,027.0,020.3,17.3,0000.0,0005.11,0004.60,0004.55
2024-02-11 07:05:00,SystemResetWarning,0829.0,5.00,000.00,018.5,018.8,000.0,027.1,020.8,17.1,0000.0,0005.13,0004.61,0004.55
2024-02-11 07:06:00,SystemResetWarning,0829.0,4.98,000.00,018.6,018.9,000.0,027.0,020.8,17.0,0000.0,0005.22,0004.65,0004.59
2024-02-11 07:07:00,SystemResetWarning,0829.0,5.02,000.00,018.6,018.7,000.0,027.0,020.6,17.0,0000.0,0005.34,0004.69,0004.62
2024-02-11 07:08:00,SystemResetWarning,0828.9,5.00,000.00,018.6,018.6,000.0,026.9,020.4,17.0,0000.0,0005.48,0004.73,0004.64
2024-02-11 07:09:00,SystemResetWarning,0828.9,4.99,000.00,018.6,018.4,000.0,026.9,020.2,17.1,0000.0,0005.52,0004.73,0004.65
2024-02-11 07:10:00,SystemResetWarning,0828.9,5.00,000.00,018.5,018.3,000.0,026.9,020.2,17.1,0000.0,0005.84,0004.74,0004.65
2024-02-11 07:11:00,SystemResetWarning,0828.9,5.02,000.00,018.5,018.1,000.0,026.8,020.1,17.1,0000.0,0006.08,0004.76,0004.66
2024-02-11 07:12:00,SystemResetWarning,0828.9,5.00,000.00,018.4,018.0,000.0,026.8,020.0,17.2,0000.0,0006.04,0004.76,0004.66
2024-02-11 07:13:00,SystemResetWarning,0828.9,4.99,000.00,018.4,018.0,000.0,026.8,020.0,17.2,0000.0,0005.99,0004.75,0004.67
2024-02-11 07:14:00,SystemResetWarning,0829.0,5.00,000.00,018.4,017.9,000.0,026.8,020.0,17.3,0000.0,0005.98,0004.75,0004.67
2024-02-11 07:15:00,SystemResetWarning,0829.0,5.01,000.00,018.4,017.9,000.0,026.8,020.0,17.3,0000.0,0005.99,0004.77,0004.69
2024-02-11 07:16:00,SystemResetWarning,0829.0,5.01,000.00,018.3,017.8,000.0,026.9,020.0,17.3,0000.0,0005.99,0004.78,0004.70
2024-02-11 07:17:00,SystemResetWarning,0829.0,5.01,000.00,018.3,017.8,000.0,026.9,020.0,17.3,0000.0,0005.92,0004.74,0004.68
2024-02-11 07:18:00,SystemResetWarning,0829.0,5.01,000.00,018.3,017.8,000.0,026.9,020.0,17.3,0000.0,0005.93,0004.73,0004.65
2024-02-11 07:19:00,SystemResetWarning,0829.0,5.00,000.00,018.3,017.8,000.0,026.9,020.0,17.3,0000.0,0005.88,0004.70,0004.62
2024-02-11 07:20:00,SystemResetWarning,0829.1,4.99,000.00,018.3,017.7,000.0,026.9,020.0,17.4,0000.0,0005.91,0004.69,0004.62
2024-02-11 07:21:00,SystemResetWarning,0829.1,4.99,000.00,018.3,017.7,000.0,026.9,020.0,17.4,0000.0,0005.62,0004.70,0004.63
2024-02-11 07:22:00,SystemResetWarning,0829.1,5.00,000.00,018.3,017.7,000.0,026.9,020.0,17.4,0000.0,0005.47,0004.69,0004.61
2024-02-11 07:23:00,SystemResetWarning,0829.1,5.00,000.00,018.3,017.7,000.0,026.9,020.0,17.4,0000.0,0005.46,0004.69,0004.61
2024-02-11 07:24:00,SystemResetWarning,0829.1,5.01,000.00,018.3,017.6,000.0,026.9,020.0,17.4,0000.0,0005.45,0004.67,0004.59
2024-02-11 07:25:00,SystemResetWarning,0829.1,5.01,000.00,018.2,017.6,000.0,026.9,020.0,17.4,0000.0,0005.45,0004.67,0004.58
2024-02-11 07:26:00,SystemResetWarning,0829.1,4.99,000.00,018.2,017.6,000.0,026.9,020.0,17.5,0000.0,0005.42,0004.65,0004.56
2024-02-11 07:27:00,SystemResetWarning,0829.1,5.00,000.00,018.2,017.5,000.0,026.9,020.0,17.5,0000.0,0005.39,0004.62,0004.53
2024-02-11 07:28:00,SystemResetWarning,0829.1,5.00,000.00,018.2,017.5,000.0,027.0,020.0,17.5,0000.0,0005.37,0004.62,0004.53
2024-02-11 07:29:00,SystemResetWarning,0829.1,5.00,000.00,018.2,017.5,000.0,026.9,020.0,17.5,0000.0,0005.24,0004.57,0004.50
2024-02-11 07:30:00,SystemResetWarning,0829.2,5.00,000.00,018.2,017.5,000.0,026.9,020.0,17.5,0000.0,0005.18,0004.56,0004.49
2024-02-11 07:31:00,SystemResetWarning,0829.1,5.00,000.00,018.2,017.5,000.0,027.0,020.0,17.5,0000.0,0005.07,0004.54,0004.47
2024-02-11 07:32:00,SystemResetWarning,0829.1,5.01,000.00,018.3,017.8,000.0,027.0,020.2,17.4,0000.0,0004.99,0004.50,0004.45
2024-02-11 07:33:00,SystemResetWarning,0829.2,5.00,000.00,018.5,018.6,000.0,027.1,020.7,17.3,0000.0,0004.93,0004.48,0004.43
2024-02-11 07:34:00,SystemResetWarning,0829.1,4.99,000.00,018.6,018.9,000.0,027.0,020.8,17.1,0000.0,0004.92,0004.47,0004.42
2024-02-11 07:35:00,SystemResetWarning,0829.1,4.99,000.00,018.6,018.7,000.0,027.0,020.5,17.1,0000.0,0004.88,0004.45,0004.41
2024-02-11 07:36:00,SystemResetWarning,0829.1,5.00,000.00,018.6,018.6,000.0,026.9,020.4,17.1,0000.0,0004.85,0004.44,0004.40
2024-02-11 07:37:00,SystemResetWarning,0829.1,4.99,000.00,018.6,018.4,000.0,026.9,020.2,17.1,0000.0,0004.82,0004.41,0004.38
2024-02-11 07:38:00,SystemResetWarning,0829.1,5.01,000.00,018.5,018.3,000.0,026.9,020.2,17.2,0000.0,0004.88,0004.41,0004.37
2024-02-11 07:39:00,SystemResetWarning,0829.1,5.01,000.00,018.5,018.2,000.0,026.9,020.1,17.2,0000.0,0004.91,0004.40,0004.35
2024-02-11 07:40:00,SystemResetWarning,0829.1,5.01,000.00,018.4,018.1,000.0,026.8,020.0,17.2,0000.0,0004.87,0004.40,0004.35
2024-02-11 07:41:00,SystemResetWarning,0829.1,4.99,000.00,018.4,018.0,000.0,026.9,020.0,17.3,0000.0,0004.83,0004.38,0004.34
2024-02-11 07:42:00,SystemResetWarning,0829.1,4.99,000.00,018.4,017.9,000.0,026.9,020.0,17.3,0000.0,0004.82,0004.37,0004.33
2024-02-11 07:43:00,SystemResetWarning,0829.1,5.01,000.00,018.4,017.8,000.0,026.9,020.0,17.3,0000.0,0004.87,0004.38,0004.32
2024-02-11 07:44:00,SystemResetWarning,0829.1,5.00,000.00,018.3,017.8,000.0,026.9,020.0,17.3,0000.0,0004.84,0004.37,0004.32
2024-02-11 07:45:00,SystemResetWarning,0829.1,5.02,000.00,018.3,017.7,000.0,026.9,020.0,17.4,0000.0,0004.80,0004.36,0004.31
2024-02-11 07:46:00,SystemResetWarning,0829.0,4.99,000.00,018.3,017.7,000.0,027.0,020.0,17.4,0000.0,0004.80,0004.36,0004.31
2024-02-11 07:47:00,SystemResetWarning,0829.1,4.99,000.00,018.3,017.6,000.0,027.0,020.0,17.4,0000.0,0004.80,0004.35,0004.30
2024-02-11 07:48:00,SystemResetWarning,0829.1,5.01,000.00,018.3,017.6,000.0,027.0,020.0,17.4,0000.0,0004.81,0004.34,0004.29
2024-02-11 07:49:00,SystemResetWarning,0829.1,5.01,000.00,018.3,017.5,000.0,027.0,020.0,17.4,0000.0,0004.77,0004.34,0004.28
2024-02-11 07:50:00,SystemResetWarning,0829.1,4.99,000.00,018.3,017.5,000.0,027.0,020.0,17.4,0000.0,0004.74,0004.33,0004.28
2024-02-11 07:51:00,SystemResetWarning,0829.1,4.99,000.00,018.3,017.5,000.0,027.0,020.0,17.4,0000.0,0004.72,0004.32,0004.27
2024-02-11 07:52:00,SystemResetWarning,0829.1,5.00,000.00,018.2,017.4,000.0,027.0,020.0,17.4,0000.0,0004.70,0004.31,0004.26
2024-02-11 07:53:00,SystemResetWarning,0829.1,5.01,000.00,018.2,017.4,000.0,027.0,020.0,17.4,0000.0,0005.09,0004.32,0004.27
2024-02-11 07:54:00,SystemResetWarning,0829.1,5.01,000.00,018.2,017.4,000.0,027.0,020.0,17.4,0000.0,0005.09,0004.31,0004.26
2024-02-11 07:55:00,SystemResetWarning,0829.1,5.00,000.00,018.2,017.4,000.0,027.0,020.0,17.4,0000.0,0005.07,0004.30,0004.25
2024-02-11 07:56:00,SystemResetWarning,0829.1,5.01,000.00,018.2,017.4,000.0,027.0,020.0,17.5,0000.0,0005.06,0004.29,0004.25
2024-02-11 07:57:00,SystemResetWarning,0829.1,5.00,000.00,018.2,017.5,000.0,027.0,020.1,17.5,0000.0,0005.06,0004.29,0004.25
2024-02-11 07:58:00,SystemResetWarning,0829.1,5.00,000.00,018.3,018.1,000.0,027.1,020.4,17.4,0000.0,0005.05,0004.29,0004.25
2024-02-11 07:59:00,SystemResetWarning,0829.1,4.99,000.00,018.6,018.8,000.0,027.1,020.8,17.2,0000.0,0005.04,0004.30,0004.26
